STARLINK-4006 (52676 NORAD) Tracking and Keplerian Element Data

This shows tracking and keplerian element data for the satellite.

Feedback or suggestion? Click here.




ElementValue
Catalog52676
NameSTARLINK-4006
Epoch Orbit130
Epoch Day192.91667824
Epoch Year2022
RAAN35.4157
Inclination53.2176
Eccentricity0.0001739
Argument of Perigee48.6008
Mean Anonmoly139.3539
Mean Motion15.21234216
Decay Rate-0.00722691
L11 52676U 22053W 22192.91667824 -.00722691 00000+0 -34288-1 0 9991
L22 52676 53.2176 35.4157 0001739 48.6008 139.3539 15.21234216 1307

Live tracking and technical data element details for STARLINK-4006 (NORAD 52676). STARLINK-4006 can be tracked NOW for your location showing map with azimuth and elevation plus other details from your city location.

Track the satellite on the map from your city or location and see movement details for azimuth, elevation, latitude, longitude, range, height, and movement on the map or in text.







IsCatalogInMostPopularTable: catalog: 52676, numindb: 7
Update: records affected: 1



GetName: 52676 STARLINK-4006

Hit Count: updated at: Sat, 13 Aug 2022 23:50:48 GMT